#timestamp,LO_Frequency,Hit,StdDev 
1555315215.0,286046997.0,N
1555315215.9,286046997.0,N
1555315235.7,286046996.6,N
1555315255.6,286046997.2,N
1555315275.4,286046999.6,N
1555315295.3,286047011.9,Y
1555315315.1,286046998.1,P
1555315335.8,286046998.5,N
1555315355.7,286046998.6,P
1555315375.5,286046999.5,N
1555315395.4,286046995.0,Y
1555315415.2,286046996.8,P
1555315435.0,286046997.1,N
1555315435.9,286046997.1,P
1555315455.8,286046997.2,Y
1555315475.6,286046998.1,P
1555315495.4,286046999.7,N
1555315515.3,286047000.1,N
1555315535.1,286046999.9,N
1555315555.9,286046999.7,N
1555315575.7,286047000.0,N
1555315595.5,286046999.8,N
1555315615.4,286047000.7,N
1555315635.2,286046998.1,N
1555315655.0,286046998.1,N
1555315655.9,286046998.1,N
1555315675.8,286046998.4,N
1555315695.6,286046998.8,N
1555315715.5,286047000.8,N
1555315735.3,286046998.2,N
1555315755.1,286046998.3,N
1555315775.9,286046998.5,N
1555315795.7,286046999.1,N
1555315815.5,286046998.6,N
1555315835.4,286046996.8,Y
1555315855.2,286046999.3,P
1555315875.1,286047000.5,P
1555315876.0,286047000.5,N
1555315895.8,286047000.6,N
1555315915.6,286047000.3,N
1555315935.5,286046998.3,N
1555315955.3,286046999.7,N
1555315975.1,286046999.8,N
1555315995.9,286047000.9,N
1555316015.7,286046998.1,N
1555316035.6,286046998.4,N
1555316055.4,286046997.0,Y
1555316075.2,286046996.7,P
1555316095.1,286046996.7,N
1555316096.0,286046996.7,N
1555316115.8,286046996.6,N
1555316135.7,286046998.6,N
1555316155.5,286047000.8,N
1555316175.3,286047001.2,N
1555316195.2,286046998.2,N
1555316215.0,286046999.0,N
1555316215.9,286046999.0,N
1555316235.7,286046998.2,N
1555316255.6,286046999.0,N
1555316275.4,286046999.6,N
1555316295.3,286046999.0,N
1555316315.1,286046998.4,N
1555316316.0,286046998.4,N
1555316335.8,286047001.2,N
1555316355.7,286046999.1,N
1555316375.5,286046996.5,N
1555316395.3,286046997.4,N
1555316415.2,286046996.7,N
1555316435.0,286046997.2,N
1555316435.9,286046997.2,N
1555316455.8,286046997.6,N
1555316475.6,286046997.5,N
1555316495.4,286046997.8,N
1555316515.3,286046997.3,N
1555316535.1,286046996.5,N
1555316555.8,286046999.3,N
1555316575.7,286046996.9,N
1555316595.5,286046999.4,N
1555316615.4,286046999.5,N
1555316635.2,286046997.7,N
1555316655.0,286046997.8,N
1555316655.9,286046997.8,N
1555316675.8,286046997.3,N
1555316695.6,286046997.3,N
1555316715.5,286046997.0,N
1555316735.3,286046997.8,N
1555316755.1,286046996.7,Y
1555316775.9,286046998.9,P
1555316795.7,286046998.5,P
1555316815.5,286046998.1,P
1555316835.4,286046998.9,Y
1555316855.2,286047000.0,P
1555316875.1,286047000.4,N
1555316895.9,286047000.5,N
1555316915.7,286047001.2,N
1555316935.5,286047001.1,N
1555316955.4,286047000.8,N
1555316975.2,286047000.7,N
1555316995.1,286046999.9,N
1555316996.0,286046999.9,N
1555317015.8,286046998.2,N
1555317035.6,286047001.1,N
1555317055.5,286046998.3,N
1555317075.3,286046996.7,Y
1555317095.2,286046998.9,P
1555317115.9,286046996.7,P
1555317135.7,286046997.8,N
1555317155.6,286046997.4,N
1555317175.4,286046996.5,Y
1555317195.2,286046998.4,P
1555317215.1,286047000.6,P
1555317216.0,286047000.6,N
1555317235.8,286046999.7,N
1555317255.7,286047001.6,N
1555317275.5,286047001.5,N
1555317295.3,286047001.8,N
1555317315.2,286047001.4,N
1555317335.0,286047002.4,N
1555317335.9,286047002.4,N
1555317355.8,286047000.0,N
1555317375.6,286047000.1,N
1555317395.4,286047000.1,N
1555317415.3,286047001.6,N
1555317435.1,286047001.8,N
1555317455.8,286047002.1,N
1555317475.7,286047001.3,N
1555317495.5,286047002.6,N
1555317515.4,286047001.8,N
1555317535.2,286047001.3,N
1555317555.0,286047004.3,Y
1555317555.9,286047004.3,P
1555317575.8,286047002.8,N
1555317595.6,286047000.1,N
1555317615.4,286047000.9,N
1555317635.3,286047000.4,N
1555317655.1,286046999.8,N
1555317675.9,286046999.7,N
1555317695.7,286047000.2,N
1555317715.5,286047002.3,N
1555317735.4,286047002.7,N
1555317755.2,286047000.1,N
1555317775.1,286047001.9,N
1555317776.0,286047001.9,N
1555317795.8,286047004.3,Y
1555317815.6,286047002.5,P
1555317835.5,286047000.4,N
1555317855.3,286046999.7,N
1555317875.2,286047000.9,N
1555317895.9,286047000.6,N
1555317915.7,286047002.0,N
1555317935.6,286047001.0,N
1555317955.4,286046998.1,N
1555317975.2,286046999.4,N
1555317995.1,286046998.7,N
1555317996.0,286046998.7,N
1555318015.8,286046996.5,N
1555318035.7,286047000.7,N
1555318055.5,286047000.9,N
1555318075.3,286047000.3,N
1555318095.2,286047002.6,N
1555318115.9,286047000.4,N
1555318135.7,286046999.8,N
1555318155.6,286047000.4,N
1555318175.4,286047001.1,N
1555318195.2,286047002.1,N
1555318215.1,286047001.7,N
1555318216.0,286047001.7,N
1555318235.8,286047001.6,N
1555318255.7,286047000.1,N
1555318275.5,286047001.9,N
1555318295.3,286047004.0,N
1555318315.2,286047004.1,N
1555318335.0,286047004.3,N
1555318335.9,286047004.3,N
1555318355.7,286047002.2,N
1555318375.6,286047002.1,N
1555318395.4,286047004.2,N
1555318415.3,286047003.7,N
1555318435.1,286047003.2,N
1555318455.8,286047003.2,N
1555318475.7,286047004.0,N
1555318495.5,286047002.7,N
1555318515.4,286047002.7,N
1555318535.2,286047002.8,N
1555318555.0,286047000.3,N
1555318555.9,286047000.3,N
1555318575.8,286047000.4,N
1555318595.6,286047000.6,N
1555318615.5,286047000.5,N
1555318635.3,286047000.8,N
1555318655.1,286047001.1,N
1555318675.9,286047002.6,N
1555318695.7,286047003.7,N
1555318715.5,286047003.7,N
1555318735.4,286047001.3,N
1555318755.2,286047002.0,N
1555318775.1,286047002.1,N
1555318776.0,286047002.1,N
1555318795.8,286047004.2,Y
